[[{"header":{"parameterUnit":"m.s-1","parameterCategory":1,"la1":30.2991,"la2":30.254,"lo1":-89.0895,"lo2":-89.0444,"dy":0.0017,"dx":0.0017,"nx":28,"ny":28,"refTime":"2023-07-30T09:00:00:Z","depth":0,"parameterNumber":2,"parameterNumberName":"U-component_of_WINDS"},"data":[0,0,0,0,0,0,0,0,0,0,0,0,0,0,0,0,0,0,0,0,0,0,0,0,0,0,0,0,0,0,0,0,0,0,0,0,0,0,0,0,0,0,0,0,0,0,0,0,0,0,0,0,0,0,0,0,0,0,1.2558,1.256,0,1.2697,1.2698,1.27,1.2756,1.2755,1.2755,1.2755,1.2894,1.2898,1.2902,0,0,0,0,0,0,0,0,0,0,0,0,0,1.2339,1.2343,1.2558,1.256,1.2562,1.2696,1.2698,1.27,1.2756,1.2755,1.2755,1.2754,1.2893,1.2898,1.2903,0,0,0,0,0,0,0,0,0,0,0,0,0,1.2452,1.2344,1.2558,1.2605,1.2611,1.2696,1.2698,1.2701,1.2756,1.2755,1.2755,1.2754,1.2892,1.2897,1.2903,1.295,0,0,1.2922,1.2924,0,0,0,0,0,0,0,0,1.2445,1.246,1.2597,1.2602,1.2609,1.2708,1.2673,1.2784,1.2756,1.2701,1.2755,1.2754,1.2833,1.2844,1.2871,1.2957,1.2963,1.2922,1.2926,1.2929,1.293,0,0,0,0,0,0,0,1.2437,1.2454,1.2613,1.2599,1.2606,1.2619,1.2635,1.2694,1.2768,1.2705,1.271,1.2726,1.2836,1.2865,1.2874,1.2965,1.2922,1.2928,1.2931,1.2934,1.3097,1.3097,0,0,0,0,0,0,1.2422,1.2447,1.2608,1.2617,1.2524,1.2624,1.2641,1.2677,1.2767,1.2781,1.2726,1.2728,1.2855,1.2867,1.2879,1.294,1.2929,1.2934,1.2938,1.3096,1.3097,1.3097,0,0,0,0,0,0,1.2417,1.2436,1.2603,1.2533,1.2556,1.2628,1.2668,1.268,1.2709,1.2783,1.2796,1.2742,1.2855,1.2871,1.2932,1.2946,1.2937,1.2942,1.3095,1.3096,1.3097,1.3062,0,0,0,0,0,0,1.2411,1.2434,1.2453,1.2533,1.2559,1.2654,1.2669,1.2683,1.2719,1.2723,1.2801,1.2814,1.2856,1.2923,1.2938,1.2954,1.2947,1.3094,1.3096,1.3097,1.3063,1.3062,1.3062,0,0,0,0,0,1.2403,1.2437,1.2454,1.2473,1.2585,1.2655,1.2669,1.2717,1.272,1.2739,1.2787,1.2811,1.2942,1.2929,1.2947,1.2964,1.3093,1.3095,1.3097,1.3063,1.3062,1.3062,0,0,0,0,0,0,1.2356,1.2449,1.2468,1.253,1.2584,1.2664,1.269,1.2715,1.2769,1.2771,1.2827,1.2845,1.2901,1.2939,1.2923,1.3014,1.302,1.3025,1.2988,1.2988,1.2987,1.2977,1.2952,0,0,0,0,0,1.2353,1.2403,1.2481,1.2528,1.2554,1.2617,1.2649,1.2682,1.274,1.2763,1.2815,1.287,1.2924,1.2958,1.3011,1.3068,1.3086,1.3089,1.3089,1.3088,1.3092,1.3124,1.3126,1.3103,1.3103,1.3103,0,0,1.2347,1.2404,1.2432,1.252,1.2566,1.2615,1.2636,1.2688,1.2725,1.2771,1.2832,1.2872,1.2937,1.2997,1.3025,1.303,1.3102,1.309,1.3089,1.3093,1.3126,1.3128,1.313,1.3104,1.3104,1.3103,0,0,1.2361,1.241,1.2454,1.25,1.2569,1.2611,1.2621,1.2698,1.2726,1.2789,1.2824,1.2869,1.296,1.3005,1.304,1.3071,1.3095,1.3086,1.3084,1.3115,1.3117,1.3119,1.3129,1.3133,1.309,1.309,1.309,0,1.2345,1.2422,1.2473,1.2524,1.2561,1.2605,1.265,1.2692,1.2774,1.2799,1.2803,1.2918,1.2965,1.3035,1.3043,1.307,1.3083,1.3078,1.3112,1.3115,1.3117,1.3128,1.3132,1.3088,1.3089,1.3089,1.3089,0,1.2398,1.2451,1.2478,1.2558,1.2599,1.2645,1.2703,1.2738,1.2767,1.2808,1.287,1.2928,1.2994,1.3013,1.3042,1.3087,1.3088,1.3101,1.3108,1.3117,1.3128,1.3133,1.3086,1.3087,1.3087,1.3088,0,0,1.2387,1.2495,1.2504,1.254,1.262,1.2661,1.271,1.2775,1.2803,1.2859,1.2901,1.2977,1.299,1.3029,1.3063,1.309,1.311,1.31,1.3103,1.31,1.3164,1.3153,1.3157,1.3127,1.3128,1.3129,1.3159,0,1.2412,1.2502,1.255,1.2619,1.2668,1.2711,1.2753,1.2806,1.2846,1.2892,1.2936,1.2989,1.3002,1.3026,1.3055,1.3102,1.3124,1.31,1.3166,1.3168,1.3148,1.3163,1.3152,1.3178,1.3163,1.3164,1.3165,0,1.2454,1.2509,1.2584,1.2658,1.268,1.2717,1.278,1.2825,1.2885,1.2912,1.2956,1.2989,1.3041,1.3044,1.3116,1.3099,1.3128,1.3155,1.3158,1.3165,1.3167,1.3171,1.3187,1.3191,1.3172,1.3172,1.3171,0,1.2438,1.2531,1.2588,1.2618,1.2705,1.273,1.2768,1.2828,1.2864,1.2919,1.2943,1.3002,1.3035,1.3081,1.3129,1.3126,1.3196,1.3203,1.322,1.3218,1.3233,1.3231,1.3253,1.3252,1.3252,1.3252,1.3251,0,1.2461,1.2504,1.2582,1.2617,1.2667,1.272,1.2768,1.2809,1.2862,1.2905,1.2945,1.2984,1.3046,1.3093,1.3131,1.3185,1.3199,1.3222,1.3232,1.3219,1.3216,1.3239,1.3238,1.3253,1.3252,1.3252,1.3252,0,1.2451,1.2505,1.257,1.2647,1.2668,1.2701,1.2767,1.2802,1.2844,1.2897,1.2913,1.2978,1.3035,1.3088,1.3164,1.3189,1.3244,1.3256,1.3223,1.3229,1.3242,1.324,1.328,1.3288,1.3281,1.3281,1.3281,0,1.2462,1.2497,1.2579,1.2611,1.2647,1.2698,1.2735,1.2789,1.2826,1.2897,1.2924,1.2984,1.3035,1.3124,1.3177,1.3235,1.3249,1.3259,1.3258,1.3244,1.3249,1.3247,1.325,1.3258,1.3258,1.3258,1.3258,0,1.2476,1.2501,1.2553,1.2614,1.2657,1.2708,1.276,1.2783,1.2847,1.2886,1.2945,1.2985,1.3062,1.3121,1.3185,1.3224,1.3251,1.3258,1.3265,1.3251,1.3231,1.3242,1.3221,1.3256,1.3257,1.3257,1.3257,1.3257,1.2477,1.251,1.2573,1.2629,1.2674,1.2721,1.2758,1.2804,1.2855,1.2922,1.2951,1.3011,1.307,1.3159,1.3197,1.3244,1.325,1.326,1.3263,1.3264,1.3262,1.3223,1.3256,1.3256,1.3256,1.3256,1.3257,0,1.2493,1.2535,1.2587,1.2658,1.2702,1.2725,1.2784,1.2819,1.2871,1.2925,1.2974,1.3042,1.3099,1.3157,1.3217,1.3244,1.3258,1.3258,1.3256,1.3265,1.3253,1.3241,1.3245,1.3245,1.3245,1.3245,1.3245,1.3245,1.2506,1.2563,1.2595,1.2674,1.2716,1.2775,1.2806,1.285,1.2893,1.2967,1.3015,1.3053,1.3108,1.3173,1.3226,1.3242,1.3262,1.3258,1.3277,1.3265,1.3266,1.3266,1.3255,1.3262,1.3262,1.3285,1.3285,1.3285]},{"header":{"parameterUnit":"m.s-1","parameterCategory":1,"la1":30.2991,"la2":30.254,"lo1":-89.0895,"lo2":-89.0444,"dy":0.0017,"dx":0.0017,"nx":28,"ny":28,"refTime":"2023-07-30T09:00:00:Z","depth":0,"parameterNumber":3,"parameterNumberName":"V-component_of_WINDS"},"data":[0,0,0,0,0,0,0,0,0,0,0,0,0,0,0,0,0,0,0,0,0,0,0,0,0,0,0,0,0,0,0,0,0,0,0,0,0,0,0,0,0,0,0,0,0,0,0,0,0,0,0,0,0,0,0,0,0,0,2.7499,2.7499,0,2.7431,2.743,2.7429,2.735,2.7349,2.7348,2.7347,2.7274,2.7273,2.7272,0,0,0,0,0,0,0,0,0,0,0,0,0,2.7559,2.7559,2.75,2.7499,2.7498,2.7431,2.743,2.7429,2.7351,2.7349,2.7348,2.7346,2.7274,2.7273,2.7272,0,0,0,0,0,0,0,0,0,0,0,0,0,2.7516,2.7558,2.75,2.7451,2.7445,2.7431,2.743,2.7429,2.7351,2.7349,2.7347,2.7346,2.7274,2.7273,2.7272,2.73,0,0,2.7268,2.7268,0,0,0,0,0,0,0,0,2.7519,2.7514,2.7459,2.7454,2.7448,2.7397,2.7424,2.7386,2.7351,2.7387,2.7347,2.7345,2.7316,2.7311,2.7302,2.7296,2.7293,2.7268,2.7267,2.7267,2.7266,0,0,0,0,0,0,0,2.7522,2.7517,2.7472,2.7458,2.7452,2.7431,2.7423,2.7417,2.7362,2.7383,2.7378,2.7371,2.7313,2.7304,2.73,2.7292,2.7268,2.7267,2.7266,2.7266,2.7304,2.7306,0,0,0,0,0,0,2.7533,2.752,2.7474,2.747,2.748,2.7431,2.7422,2.7415,2.7362,2.7352,2.7372,2.7367,2.7307,2.7302,2.7297,2.7325,2.7267,2.7266,2.7265,2.7302,2.7305,2.7306,0,0,0,0,0,0,2.7534,2.753,2.7477,2.7493,2.7485,2.7432,2.7425,2.7415,2.7406,2.7354,2.7343,2.7373,2.7305,2.7299,2.73,2.7322,2.7265,2.7264,2.73,2.7303,2.7305,2.7383,0,0,0,0,0,0,2.7536,2.7531,2.7541,2.7494,2.7485,2.7482,2.7427,2.7415,2.7404,2.7397,2.7352,2.7342,2.7303,2.7302,2.7298,2.7319,2.7263,2.7298,2.7301,2.7305,2.7378,2.7388,2.7396,0,0,0,0,0,2.7539,2.7565,2.7542,2.7537,2.7497,2.7484,2.7478,2.7433,2.7406,2.7416,2.7382,2.7344,2.732,2.7303,2.7298,2.7319,2.7296,2.7301,2.7304,2.7374,2.7386,2.7396,0,0,0,0,0,0,2.7615,2.7558,2.7532,2.7544,2.752,2.747,2.7481,2.7447,2.7429,2.7423,2.7367,2.7358,2.7365,2.7342,2.7323,2.7342,2.7303,2.7306,2.7357,2.7368,2.7377,2.7382,2.7262,0,0,0,0,0,2.7634,2.7629,2.7578,2.7594,2.7583,2.7535,2.7527,2.7495,2.7466,2.7455,2.7422,2.7395,2.7381,2.7373,2.7358,2.7374,2.7362,2.7386,2.7395,2.7403,2.7406,2.7412,2.7421,2.732,2.732,2.7319,0,0,2.7672,2.764,2.764,2.7609,2.7586,2.758,2.7526,2.7523,2.7518,2.7454,2.7453,2.7428,2.7394,2.7402,2.7404,2.7383,2.7431,2.7408,2.7414,2.7413,2.7417,2.7426,2.7435,2.7322,2.7322,2.7321,0,0,2.7738,2.7714,2.7723,2.7702,2.7668,2.7635,2.7638,2.7594,2.7575,2.7573,2.7524,2.7517,2.7495,2.7473,2.7459,2.7516,2.748,2.7513,2.756,2.7566,2.7574,2.7581,2.76,2.7608,2.7516,2.7517,2.7517,0,2.7788,2.7779,2.7733,2.7732,2.772,2.7663,2.7672,2.7653,2.7615,2.7607,2.7585,2.7555,2.7529,2.7531,2.7545,2.7535,2.7536,2.7517,2.7577,2.7583,2.7589,2.7607,2.7614,2.7521,2.752,2.752,2.7519,0,2.7843,2.7838,2.785,2.7816,2.7805,2.7809,2.7762,2.7756,2.7725,2.7695,2.7693,2.7659,2.7635,2.7633,2.7603,2.7631,2.7619,2.7587,2.7546,2.7604,2.7619,2.7626,2.7527,2.7525,2.7524,2.7523,0,0,2.7955,2.7895,2.7901,2.7884,2.7843,2.7837,2.7838,2.7816,2.7812,2.7788,2.7787,2.777,2.774,2.7724,2.769,2.7696,2.7743,2.7663,2.7662,2.7679,2.777,2.7794,2.7803,2.7718,2.772,2.772,2.7773,0,2.8013,2.8013,2.7971,2.7982,2.7976,2.7922,2.7923,2.7897,2.7869,2.7858,2.7826,2.7815,2.7777,2.7767,2.777,2.7737,2.776,2.7732,2.7716,2.7716,2.7725,2.7811,2.7836,2.7887,2.7779,2.778,2.7781,0,2.808,2.8061,2.8072,2.803,2.8025,2.8027,2.8003,2.7995,2.7964,2.7942,2.7925,2.7887,2.7884,2.7846,2.7841,2.7823,2.7813,2.7796,2.7796,2.7792,2.7751,2.7809,2.7902,2.791,2.779,2.7789,2.7789,0,2.8159,2.8136,2.814,2.8127,2.8078,2.8081,2.806,2.8028,2.8017,2.7996,2.7988,2.7966,2.7954,2.7938,2.7894,2.7871,2.7894,2.7852,2.7875,2.7876,2.7881,2.7882,2.7974,2.7877,2.7877,2.7877,2.7877,0,2.8228,2.8236,2.8175,2.8177,2.8185,2.8136,2.8144,2.8118,2.809,2.8085,2.8037,2.8033,2.7976,2.7966,2.7932,2.7932,2.7927,2.7909,2.7899,2.7913,2.7915,2.7905,2.79,2.7879,2.7878,2.7878,2.7878,0,2.8317,2.8277,2.8277,2.823,2.8219,2.8227,2.8186,2.8186,2.8155,2.8149,2.8145,2.8096,2.8081,2.8036,2.801,2.7987,2.7997,2.7979,2.8007,2.8001,2.8026,2.8024,2.8115,2.8124,2.8023,2.8024,2.8024,0,2.8363,2.8369,2.8324,2.8317,2.8299,2.829,2.8279,2.8231,2.8221,2.8186,2.8189,2.8171,2.8153,2.8132,2.8093,2.8072,2.8054,2.8087,2.805,2.8063,2.8053,2.8053,2.8053,2.8095,2.8096,2.8097,2.8098,0,2.8449,2.8429,2.8415,2.8395,2.8383,2.8364,2.8342,2.834,2.8286,2.8277,2.8262,2.8249,2.8222,2.8204,2.8177,2.8154,2.8117,2.811,2.8114,2.8127,2.8143,2.8134,2.8028,2.8108,2.8107,2.8106,2.8106,2.8105,2.8517,2.852,2.8488,2.8474,2.8453,2.8434,2.8431,2.84,2.8387,2.8362,2.8334,2.8322,2.829,2.825,2.823,2.8219,2.8199,2.8205,2.8206,2.8208,2.8214,2.8146,2.8214,2.8213,2.8213,2.8213,2.8213,0,2.86,2.8577,2.8565,2.8537,2.8526,2.8493,2.8468,2.846,2.845,2.8424,2.8408,2.839,2.8372,2.8332,2.831,2.8309,2.8291,2.8305,2.8304,2.8299,2.8234,2.8232,2.8319,2.8319,2.8319,2.8319,2.8319,2.8319,2.8642,2.8643,2.8619,2.861,2.8586,2.8575,2.8563,2.8545,2.8523,2.8506,2.8491,2.8466,2.8433,2.8408,2.839,2.8378,2.8372,2.8391,2.8374,2.8314,2.8304,2.8294,2.8292,2.839,2.839,2.844,2.844,2.8441]}]]